GEFSSGP_con_cape1000_006.txt.gz
Probability
0 0 0 0 0 0 0 0 0 0 0 0 0 0 0 16 0 0 0 0 0 16 100 100 100 100 100 100 100 94 100 100 100 100 100 100 100 100 100 100 100 100 100 100 100 100 90 61 26
0 0 0 0 0 0 0 0 0 0 0 0 0 0 0 0 0 0 0 0 0 48 100 100 100 100 100 100 100 100 100 100 100 100 100 100 100 100 100 100 100 100 100 100 100 100 90 77 68
0 0 0 0 0 0 0 0 0 0 0 3 13 6 0 0 0 0 0 0 0 65 100 100 100 100 100 100 100 100 100 100 100 100 100 100 100 100 100 100 100 100 94 94 97 94 97 100 100
0 0 0 0 0 0 0 0 0 0 0 6 23 3 3 3 0 0 0 0 0 74 100 100 100 100 100 100 100 100 100 100 100 100 100 100 100 100 100 100 100 100 97 94 100 100 94 94 100
0 0 0 0 0 0 0 0 0 0 6 71 19 6 0 3 0 0 0 0 0 65 100 100 100 100 100 100 100 100 100 100 100 100 100 100 100 100 100 100 100 100 100 100 100 100 100 100 100
0 0 0 0 0 0 0 0 0 0 32 84 35 10 0 0 0 0 0 0 0 55 100 100 100 100 100 100 100 100 100 100 100 100 100 100 100 100 100 100 97 97 100 100 100 100 100 97 100
0 0 0 0 0 0 0 0 0 0 3 84 94 3 0 0 0 0 0 0 23 48 100 100 100 100 100 100 100 100 100 100 100 100 100 100 100 100 100 100 100 97 100 100 100 100 100 100 100
0 0 0 0 0 0 0 0 0 0 3 97 81 3 0 0 0 0 0 35 52 71 100 100 100 100 100 100 100 100 100 100 100 100 100 100 100 100 100 100 100 100 100 100 100 100 100 100 100
0 0 0 0 0 0 0 0 0 13 65 90 97 52 0 0 10 58 58 94 74 58 61 87 84 90 100 100 100 100 100 100 100 100 100 100 100 100 100 100 100 100 100 100 100 100 100 100 100
0 0 0 0 0 0 0 0 0 39 94 90 61 3 0 0 39 94 97 97 84 32 13 16 35 39 58 100 100 100 100 100 100 100 100 97 68 61 97 100 100 100 100 100 100 100 100 100 100
0 0 0 0 0 0 0 0 0 35 65 84 35 0 0 0 19 77 97 100 90 52 6 6 19 13 19 32 84 100 100 100 100 100 81 26 16 13 58 32 97 100 100 100 100 100 100 100 100
0 0 0 0 0 0 0 0 0 0 39 87 39 3 3 0 6 39 74 97 94 71 35 32 16 13 6 3 23 74 74 100 100 97 81 39 29 35 29 16 13 77 97 100 100 100 100 97 94
0 0 0 0 0 0 0 0 0 0 13 90 81 68 52 16 3 10 45 94 97 87 65 23 29 13 0 0 10 13 23 52 77 65 65 55 52 74 71 68 23 39 65 81 87 87 90 97 94
0 0 0 0 0 0 0 0 0 13 42 97 94 90 90 87 84 74 74 97 100 97 94 19 19 16 3 0 6 23 23 19 32 42 39 42 52 71 74 77 35 13 26 48 65 71 77 81 84
0 0 0 0 0 0 0 0 0 52 97 100 100 100 100 100 100 100 100 100 100 100 97 35 16 6 3 13 42 71 81 65 42 35 29 32 55 65 81 71 55 26 10 3 13 39 35 19 13
0 0 0 0 0 0 0 0 16 61 97 100 100 100 100 100 100 97 94 94 100 100 100 97 97 81 68 74 94 100 100 100 100 87 71 74 81 90 94 94 68 32 13 6 16 6 6 3 0
0 0 0 0 0 0 0 0 13 55 90 100 100 100 100 100 97 90 81 81 97 100 100 100 100 100 97 97 97 94 90 94 100 100 100 94 97 100 100 100 94 35 19 13 10 0 0 0 0
0 0 0 0 0 0 0 0 3 26 84 90 100 97 100 100 94 61 58 81 100 100 100 100 100 94 84 61 16 6 0 0 16 58 87 94 100 100 97 100 94 71 48 39 10 0 0 0 0
0 0 0 0 0 0 0 0 3 6 26 90 97 100 100 100 97 81 74 84 90 87 90 97 90 68 35 6 3 0 0 0 0 0 10 65 84 100 90 90 90 87 87 77 32 0 0 0 0
0 0 0 0 0 0 0 0 0 6 16 68 100 100 100 100 100 100 94 87 84 71 77 77 71 61 45 19 3 0 0 0 0 0 10 26 39 77 87 68 84 74 71 58 26 6 0 0 0
0 0 0 0 0 0 0 0 0 26 74 90 94 94 97 97 97 97 94 87 77 61 52 45 35 45 48 52 29 3 3 0 0 0 3 3 16 39 68 77 29 23 13 19 10 6 0 0 0
0 0 0 0 0 0 0 0 0 13 55 71 81 68 68 71 68 61 58 55 32 10 10 6 10 16 39 26 19 0 0 0 0 0 0 0 0 6 32 45 32 19 10 0 0 0 0 0 0
0 0 0 0 0 0 0 0 0 6 13 32 32 23 23 26 29 29 16 0 0 0 0 0 0 6 13 10 0 0 0 0 0 0 0 0 0 0 0 3 0 0 0 6 3 0 0 0 0
0 0 0 0 0 0 0 0 0 0 3 0 0 3 0 0 0 0 0 0 0 0 0 0 0 0 0 0 0 0 0 0 0 0 0 0 0 0 0 0 0 0 0 0 3 0 0 0 0
0 0 0 0 0 0 0 0 0 0 0 0 0 0 0 0 0 0 0 0 0 0 0 0 0 0 0 0 0 0 0 0 0 0 0 0 0 0 0 0 0 0 0 0 0 0 0 0 0
0 0 0 0 0 0 0 0 0 0 0 0 0 0 0 0 0 0 0 0 0 0 0 0 0 0 0 0 0 0 0 0 0 0 0 0 0 0 0 0 0 0 0 0 0 0 0 0 0
0 0 0 0 0 0 0 0 0 0 0 0 0 0 0 0 0 0 0 0 0 0 0 0 0 0 0 0 0 0 0 0 0 0 0 0 0 0 0 0 0 0 0 0 0 0 0 0 0
0 0 0 0 0 0 0 0 0 0 0 0 0 0 0 0 0 0 0 0 0 0 0 0 0 0 0 0 0 0 0 0 0 0 0 0 0 0 0 0 0 0 0 0 0 0 0 0 0
0 0 0 0 0 0 0 0 0 0 0 0 0 0 0 0 0 0 0 0 0 0 0 0 0 0 0 0 0 0 0 0 0 0 0 0 0 0 0 0 0 0 0 0 0 0 0 0 0
0 0 0 0 0 0 0 0 0 0 0 0 0 0 0 0 0 0 0 0 0 0 0 0 0 0 0 0 0 0 0 0 0 0 0 0 0 0 0 0 0 0 0 0 0 0 0 0 0

GEFSSGP_con_cape1000_012.txt.gz
Probability
0 0 0 0 0 0 0 0 0 0 0 0 0 0 0 0 0 0 0 0 0 10 97 100 97 97 87 84 94 97 100 100 100 100 100 100 100 100 100 100 100 97 94 55 16 13 42 77 90
0 0 0 0 0 0 0 0 0 0 0 0 0 0 0 0 0 0 0 0 0 55 94 94 97 97 97 84 94 100 100 100 100 100 100 100 100 100 100 100 100 97 100 97 90 55 6 10 42
0 0 0 0 0 0 0 0 0 0 0 3 0 0 0 0 0 0 0 0 0 65 97 84 100 97 97 90 97 100 100 100 100 100 100 100 100 100 100 100 100 100 97 100 100 94 87 77 61
0 0 0 0 0 0 0 0 0 0 0 6 0 0 0 0 0 0 0 0 23 77 97 97 100 97 100 97 97 100 100 100 100 100 100 100 100 100 100 100 100 100 94 97 97 97 97 100 100
0 0 0 0 0 0 0 0 0 0 16 16 0 0 0 0 0 0 0 3 32 74 97 97 100 100 100 100 100 100 100 100 100 100 100 100 100 100 100 100 100 100 100 100 100 100 100 100 100
0 0 0 0 0 0 0 0 0 10 52 16 3 0 0 0 0 0 0 3 42 97 100 97 100 100 100 100 100 100 100 100 100 100 100 100 100 100 100 100 100 100 100 100 100 100 100 100 100
0 0 0 0 0 0 0 0 0 23 55 32 3 0 0 0 0 0 0 6 68 100 100 100 100 97 100 100 100 100 100 100 100 100 100 100 100 100 100 100 100 100 100 100 100 100 100 100 100
0 0 0 0 0 0 0 0 0 10 48 58 0 0 0 0 0 0 0 13 84 100 100 100 100 97 100 100 100 100 100 100 100 100 100 100 100 100 100 100 100 100 100 100 100 100 100 100 100
0 0 0 0 0 0 0 0 10 19 81 90 19 0 0 0 0 0 0 13 61 100 100 100 100 100 100 100 100 100 100 100 100 100 100 100 100 100 100 100 100 100 100 100 100 100 100 100 100
0 0 0 0 0 0 0 0 3 68 84 81 10 0 0 0 0 0 0 3 29 97 100 100 100 100 100 100 100 100 100 100 100 100 100 100 100 100 100 100 100 100 100 100 100 100 100 100 100
0 0 0 0 0 0 0 0 3 45 71 77 26 0 0 0 0 0 13 13 3 29 97 97 100 97 100 100 100 100 100 100 100 100 100 100 100 90 100 100 100 100 100 100 100 100 100 100 100
0 0 0 0 0 0 0 0 0 6 6 29 13 19 6 0 3 26 48 65 42 39 81 87 94 84 87 97 68 90 100 100 100 100 100 100 90 52 42 61 68 61 81 97 100 100 100 100 100
0 0 0 0 0 0 0 0 0 0 13 3 29 55 39 35 35 52 68 90 84 58 39 35 68 77 77 68 55 45 84 100 100 100 100 97 97 84 52 39 55 68 65 71 87 90 100 100 100
0 0 0 0 0 0 0 0 0 6 6 6 29 48 61 71 71 87 94 97 97 90 74 29 26 45 45 58 55 39 42 94 90 84 90 94 100 100 87 48 35 71 77 81 77 74 97 97 97
0 0 0 0 0 0 0 0 3 16 39 32 45 52 81 84 100 97 97 100 100 100 90 71 42 29 16 13 6 6 23 39 42 61 68 77 90 87 90 68 48 71 74 74 84 94 87 81 84
0 0 0 0 0 0 0 0 19 55 77 77 77 81 90 97 94 97 100 100 100 100 100 87 100 81 32 13 10 10 26 42 58 65 55 65 61 61 68 61 74 77 77 74 65 68 65 77 74
0 0 0 0 0 0 0 0 52 90 97 97 97 97 100 87 84 84 94 100 100 100 100 100 100 97 68 16 13 16 39 39 35 42 42 68 84 94 87 87 94 90 90 81 65 55 45 45 55
0 0 0 0 0 0 0 10 61 87 100 100 100 100 94 84 58 77 90 97 100 100 100 100 100 90 84 45 13 3 3 0 0 0 3 6 10 52 55 74 90 97 94 94 84 74 45 13 23
0 0 0 0 0 0 0 23 26 32 97 100 100 97 84 55 48 68 84 87 90 90 84 84 87 77 52 29 10 0 0 0 0 0 0 0 0 6 10 10 26 58 71 87 90 77 61 35 6
0 0 0 0 0 0 0 0 6 16 58 97 100 97 74 55 58 68 74 74 71 71 74 68 61 42 19 3 0 0 0 0 0 0 0 0 0 0 3 3 3 10 23 48 68 65 45 23 0
0 0 0 0 0 0 0 0 0 23 90 94 100 97 87 77 77 81 77 68 65 65 58 52 48 29 10 0 0 0 0 0 0 0 0 0 0 0 0 0 0 0 0 10 16 26 32 16 6
0 0 0 0 0 0 0 0 0 3 77 94 100 100 94 94 87 71 68 58 45 39 32 32 26 23 3 0 0 6 3 0 0 0 0 0 0 0 0 0 0 0 0 0 3 0 19 13 3
0 0 0 0 0 0 0 0 0 0 65 84 77 84 94 94 90 77 55 39 19 16 13 10 6 6 0 0 0 3 0 0 0 0 0 0 0 0 0 0 0 0 0 0 0 0 0 0 3
0 0 0 0 0 0 0 0 0 0 10 42 58 58 74 77 68 52 35 26 6 3 3 0 0 0 0 0 0 0 0 0 0 0 0 0 0 0 0 0 0 0 0 0 0 0 0 0 3
0 0 0 0 0 0 0 0 0 0 0 6 45 61 65 55 52 35 26 6 3 0 0 0 0 0 0 0 0 0 0 0 0 0 0 0 0 0 0 0 0 0 0 0 0 0 0 0 0
0 0 0 0 0 0 0 0 0 0 0 0 13 35 35 16 13 6 0 0 0 0 0 0 0 0 0 0 0 0 0 0 0 0 0 0 0 0 0 0 0 0 0 0 0 0 0 0 0
0 0 0 0 0 0 0 0 0 0 0 0 0 3 3 0 0 0 0 0 0 0 0 0 0 0 0 0 0 0 0 0 0 0 0 0 0 0 0 0 0 0 0 0 0 0 0 0 0
0 0 0 0 0 0 0 0 0 0 0 0 0 0 0 0 0 0 0 0 0 0 0 0 0 0 0 0 0 0 0 0 0 0 0 0 0 0 0 0 0 0 0 0 0 0 0 0 0
0 0 0 0 0 0 0 0 0 0 0 0 0 0 0 0 0 0 0 0 0 0 0 0 0 0 0 0 0 0 0 0 0 0 0 0 0 0 0 0 0 0 0 0 0 0 0 0 0
0 0 0 0 0 0 0 0 0 0 0 0 0 0 0 0 0 0 0 0 0 0 0 0 0 0 0 0 0 0 0 0 0 0 0 0 0 0 0 0 0 0 0 0 0 0 0 0 0

GEFSSGP_con_cape1000_018.txt.gz
Probability
0 0 0 0 10 0 0 0 0 0 0 0 0 0 0 0 0 52 29 0 10 71 90 81 100 100 100 100 100 100 100 100 100 100 100 100 100 100 90 77 55 23 26 39 55 61 65 74 90
0 0 0 0 0 0 0 0 0 0 0 0 0 0 0 0 0 3 6 0 35 55 84 65 100 100 100 100 100 100 100 100 100 100 100 100 100 97 97 90 77 45 3 0 3 6 13 42 58
0 0 0 0 0 0 0 0 0 0 0 0 0 0 0 0 0 0 6 3 52 71 90 94 100 100 100 100 100 100 100 100 100 100 100 100 100 100 97 97 97 94 87 65 19 3 3 3 13
0 0 0 0 0 0 0 0 0 0 0 3 0 0 0 0 0 0 0 23 58 61 77 94 100 100 100 100 100 100 100 100 100 100 100 100 100 97 97 97 97 94 94 100 97 87 84 74 48
0 0 0 0 0 0 0 0 3 0 0 3 0 0 0 6 0 0 10 19 45 42 45 90 100 100 100 100 100 100 100 100 100 100 100 100 100 97 97 100 100 97 97 97 97 97 90 94 97
0 0 0 0 0 0 0 0 0 0 16 13 0 0 10 23 0 0 6 16 16 26 32 100 100 100 100 100 100 100 100 100 100 100 100 100 100 100 97 97 100 100 100 100 100 100 100 100 100
0 0 0 0 0 0 0 0 0 0 19 23 6 0 0 29 3 3 6 13 6 10 52 100 97 100 100 100 100 100 100 100 100 100 100 100 100 100 100 100 100 100 100 100 100 100 100 100 100
0 0 0 0 0 0 0 0 0 0 52 74 16 0 0 97 39 42 55 55 39 26 45 100 94 97 100 100 100 100 100 100 100 100 100 100 100 100 100 100 100 100 100 100 100 100 100 100 100
0 0 0 0 0 0 0 0 3 23 87 94 84 35 10 97 94 97 100 97 94 74 74 90 97 100 100 100 100 100 100 100 100 100 100 100 100 100 100 100 100 100 100 100 100 100 100 100 100
0 0 0 0 0 0 0 0 0 26 71 100 100 100 97 97 100 100 100 100 100 100 97 97 97 100 100 94 100 100 100 100 100 100 100 100 100 100 100 97 100 100 100 100 100 100 100 100 100
0 0 0 0 0 0 0 0 3 10 19 65 97 100 100 97 100 100 100 100 100 100 97 97 100 100 100 100 100 100 100 100 100 100 100 100 100 100 100 100 100 100 100 100 100 100 100 100 100
0 0 0 0 0 0 0 0 0 3 6 48 77 100 100 97 100 97 100 100 100 100 100 97 100 100 100 100 100 100 100 100 100 100 100 100 100 100 100 100 100 100 100 100 100 100 100 100 100
0 0 0 0 0 0 0 0 0 3 10 48 77 100 100 100 100 100 100 100 100 100 100 100 100 100 100 100 100 100 100 100 100 100 100 100 100 100 100 100 100 100 100 100 100 100 100 100 100
0 0 0 0 0 0 0 0 0 0 16 52 90 100 97 94 94 100 100 100 100 100 100 100 100 100 100 100 100 100 100 100 100 100 100 100 100 100 100 100 100 100 100 97 100 100 100 100 100
0 0 0 0 0 0 0 0 0 0 13 48 90 100 97 97 100 100 100 100 100 100 100 100 100 100 100 100 100 100 100 100 100 100 100 100 100 100 100 100 100 100 97 97 97 100 94 97 94
0 0 0 0 0 0 0 0 0 13 16 48 90 100 100 100 100 100 100 100 100 100 100 100 100 100 100 100 100 100 100 100 100 100 100 100 100 100 100 100 100 100 100 100 97 97 97 90 94
0 0 0 0 0 0 0 0 13 29 32 58 97 100 100 100 100 100 100 100 100 100 100 100 100 100 100 100 100 97 100 97 97 90 81 77 74 61 68 90 97 90 90 94 94 90 97 97 94
0 0 0 0 0 0 0 0 29 65 65 77 97 100 100 100 100 100 100 97 97 100 100 100 100 97 97 94 90 87 84 77 65 55 52 39 19 16 23 23 32 48 52 68 81 90 97 97 97
0 0 0 0 0 0 0 0 16 61 84 97 100 100 100 100 100 100 97 94 94 94 97 97 94 97 97 68 61 55 19 23 10 16 19 13 6 6 23 3 16 39 29 45 52 55 55 65 77
0 0 0 0 0 0 0 0 6 45 77 94 100 100 100 100 100 97 97 87 77 74 84 94 100 90 87 68 74 65 52 3 0 13 32 26 19 10 0 6 0 3 23 32 32 55 39 16 48
0 0 0 0 0 0 0 0 0 26 68 94 97 100 100 100 100 94 81 68 65 74 81 71 84 94 90 90 58 71 97 97 29 29 35 23 16 6 3 10 3 10 6 3 13 39 35 23 26
0 0 0 0 0 0 0 0 0 0 10 55 84 97 100 100 97 84 68 55 52 68 77 90 94 94 90 90 74 58 71 6 3 61 19 23 19 0 0 0 0 3 3 3 3 0 19 35 19
0 0 0 0 0 0 0 0 0 0 0 0 55 87 100 100 97 77 45 42 32 55 74 77 90 94 94 94 87 94 71 42 13 35 39 42 10 0 0 0 0 0 3 3 3 13 16 16 19
0 0 0 0 0 0 0 0 0 0 0 0 23 81 94 90 81 81 71 61 68 71 68 65 77 90 97 100 81 97 94 87 71 68 39 26 10 3 0 0 3 6 6 3 6 16 19 32 29
0 0 0 0 0 0 0 0 0 0 0 0 29 58 71 65 55 48 42 45 45 45 55 55 77 87 94 87 90 94 90 87 81 71 26 23 6 0 0 0 3 6 6 10 13 16 13 32 42
0 0 0 0 0 0 0 0 0 0 0 10 16 13 10 6 6 6 3 3 3 3 3 6 39 71 68 65 90 94 97 84 48 52 26 16 10 0 0 3 0 0 3 0 13 13 13 26 35
0 0 0 0 0 0 0 0 0 0 3 6 3 3 0 0 0 0 0 0 0 0 0 6 6 19 29 29 84 94 97 90 71 71 74 29 26 3 0 3 0 0 0 3 16 13 26 29 29
0 0 0 0 0 0 0 0 0 0 0 0 0 0 0 0 0 0 0 0 0 0 0 0 3 10 10 19 58 61 87 87 90 77 68 61 52 35 19 3 0 0 0 0 13 10 13 29 39
0 0 0 0 0 0 0 0 0 0 0 0 0 0 0 0 0 0 0 0 0 0 0 0 0 0 0 6 16 35 61 74 65 81 81 77 65 52 32 10 6 0 0 0 3 6 3 3 6
0 0 0 0 0 0 0 0 0 0 0 0 0 0 0 0 0 0 0 0 0 0 0 0 0 0 0 0 0 0 10 29 42 55 68 71 71 52 32 10 6 0 0 0 0 0 3 3 3

GEFSSGP_con_cape1000_024.txt.gz
Probability
0 0 0 10 65 81 10 0 0 0 0 0 0 0 0 29 84 39 0 61 71 32 29 100 100 100 100 100 100 100 100 97 97 97 100 100 94 81 61 52 55 71 74 74 74 65 74 81 87
0 0 0 0 32 0 0 0 0 0 0 0 0 0 0 0 3 0 19 87 68 29 23 65 100 100 100 100 100 100 100 97 100 100 100 100 97 58 29 10 13 10 13 19 26 16 26 29 42
0 0 0 0 0 0 0 0 0 0 0 0 0 0 0 0 0 10 23 74 61 16 26 100 100 100 100 100 100 100 100 100 100 100 100 97 90 77 45 23 6 3 0 0 0 0 3 6 10
0 0 0 0 0 0 0 0 0 0 0 0 0 0 0 0 0 23 23 68 61 39 58 97 100 100 100 100 100 100 100 100 100 100 100 100 94 87 68 55 48 35 19 26 10 6 3 3 3
0 0 0 0 0 0 0 0 0 0 0 0 0 0 0 0 10 13 23 68 65 58 71 84 100 100 100 100 100 100 100 100 100 100 100 100 100 94 90 87 84 77 77 77 77 74 77 77 65
0 0 0 0 0 0 0 0 0 0 0 0 0 0 0 0 6 13 26 35 29 71 65 81 100 100 100 100 100 100 100 100 100 100 100 100 100 100 97 94 97 97 97 97 97 97 97 97 100
0 0 0 0 0 0 0 0 0 0 0 0 0 0 0 0 3 13 23 16 16 74 77 74 94 100 100 100 100 100 100 100 100 100 100 100 100 100 100 100 100 100 100 100 100 100 100 100 100
0 0 0 0 0 0 0 0 0 0 0 0 0 0 0 0 3 19 19 13 16 81 87 81 74 94 100 100 100 100 100 100 100 100 100 100 100 100 100 100 100 100 100 100 100 100 100 100 100
0 0 0 0 0 0 0 0 0 0 0 0 0 0 0 0 3 16 16 16 29 87 100 81 81 97 97 94 100 100 100 100 100 100 100 100 100 100 100 100 100 100 100 100 100 100 100 100 100
0 0 0 0 0 0 0 0 0 0 3 3 23 13 6 13 35 35 29 29 61 97 100 100 100 100 100 100 100 100 100 100 100 100 100 100 100 100 100 100 100 100 100 100 100 100 100 100 100
0 0 0 0 0 0 0 0 0 0 0 16 39 23 29 65 84 77 74 87 100 100 97 97 100 100 100 100 100 100 100 100 100 100 100 100 100 100 100 100 100 100 100 100 100 100 100 100 100
0 0 0 0 0 0 0 0 0 0 3 35 29 32 42 74 94 97 100 100 100 100 100 97 100 100 100 100 100 100 100 100 100 100 100 100 100 100 100 100 100 100 100 100 100 100 100 100 100
0 0 0 0 0 0 0 0 0 3 10 19 23 29 52 74 90 100 100 100 100 100 100 100 100 100 100 100 100 100 100 100 100 100 100 100 100 100 100 100 100 100 100 100 100 100 100 100 97
0 0 0 0 0 0 0 0 0 3 10 23 32 42 55 71 90 84 100 100 100 100 100 100 100 100 100 100 100 100 100 100 100 100 100 100 100 100 100 100 100 97 100 100 100 100 100 94 94
0 0 0 0 0 0 0 0 0 0 6 16 29 52 68 84 81 94 97 100 100 100 100 100 100 100 100 100 100 100 100 100 100 100 100 100 100 100 100 97 97 97 97 94 97 97 94 90 90
0 0 0 0 0 0 0 0 0 0 3 10 19 35 68 94 87 97 100 100 100 100 100 100 100 100 100 100 100 100 100 100 100 100 100 100 97 97 100 100 97 97 100 97 94 97 97 94 97
0 0 0 0 0 0 0 0 0 0 0 6 16 29 61 97 84 97 97 100 100 100 100 100 100 100 100 100 100 100 100 100 97 94 97 97 90 84 87 94 97 94 97 90 81 90 90 90 90
0 0 0 0 0 0 0 0 0 0 0 3 13 35 74 94 94 90 94 100 100 97 97 97 97 100 100 100 97 97 90 90 94 81 90 68 52 68 84 77 84 68 65 74 77 87 87 94 90
0 0 0 0 0 0 0 0 0 0 3 6 16 45 77 94 90 90 87 87 87 87 94 97 97 100 100 100 100 97 100 94 87 77 84 45 16 29 61 61 71 52 55 68 55 55 48 45 65
0 0 0 0 0 0 0 0 0 0 0 6 13 61 84 77 74 68 68 65 68 81 84 87 100 100 100 100 100 100 90 61 74 74 81 58 42 55 16 81 42 42 71 45 65 81 84 39 32
0 0 0 0 0 0 0 0 0 6 6 13 16 42 61 65 65 45 26 29 32 61 77 84 97 97 100 100 100 100 100 100 100 97 97 94 68 55 48 39 42 58 55 42 77 68 58 35 39
0 0 0 0 0 0 0 0 0 10 19 29 35 45 42 29 32 13 10 13 19 32 58 84 87 94 100 100 100 97 100 97 100 100 100 94 71 61 52 45 32 55 58 58 52 48 61 42 26
0 0 0 0 0 0 0 0 3 23 32 55 52 39 13 6 6 3 0 0 0 3 19 42 68 81 87 97 97 100 100 100 100 100 100 100 87 90 77 58 48 48 61 58 52 58 65 52 39
0 0 0 0 0 0 0 0 3 32 55 52 35 19 10 3 3 0 0 0 0 0 3 10 39 55 65 81 90 100 100 100 100 100 100 100 100 90 84 71 71 55 65 58 55 68 65 68 65
0 0 0 0 0 0 0 0 16 39 29 16 13 10 6 3 0 0 0 0 0 0 0 6 13 19 23 35 48 81 90 94 100 100 100 100 90 90 84 48 65 58 61 65 74 81 74 71 71
0 0 0 0 0 0 0 0 10 6 10 0 3 3 0 0 0 0 0 0 0 0 0 0 0 3 3 6 26 39 45 65 77 90 94 90 90 90 81 61 61 68 68 48 71 65 55 65 71
0 0 0 0 0 0 0 3 0 3 0 0 0 0 0 0 0 0 0 0 0 0 0 0 0 0 0 0 3 13 13 32 35 48 84 87 87 74 77 74 71 77 84 84 84 58 71 68 65
0 0 0 0 0 0 0 0 3 0 0 0 0 0 0 0 0 0 0 0 0 0 0 0 0 0 0 0 0 0 0 3 10 13 29 39 55 71 77 68 84 87 87 87 87 77 65 71 61
0 0 0 0 0 0 0 0 0 0 0 0 0 0 0 0 0 0 0 0 0 0 0 0 0 0 0 0 0 0 0 0 0 3 3 10 16 35 52 68 84 74 84 90 90 77 61 55 48
0 0 0 0 0 0 0 0 0 0 0 0 0 0 0 0 0 0 0 0 0 0 0 0 0 0 0 0 0 0 0 0 0 0 0 3 3 6 6 10 45 58 55 81 84 74 32 39 39

GEFSSGP_con_cape1000_030.txt.gz
Probability
0 0 0 0 3 19 23 10 0 0 0 0 0 6 16 16 6 0 0 0 0 6 81 100 100 100 100 100 100 100 94 97 97 100 100 94 100 97 100 100 100 100 100 100 97 97 100 100 100
0 0 0 0 0 0 0 0 0 0 0 0 0 0 0 23 29 3 0 0 0 10 74 97 100 100 100 100 100 100 97 97 97 100 100 94 90 90 94 100 100 97 97 90 94 87 84 87 90
0 0 0 0 0 0 0 0 0 0 0 0 0 0 0 23 55 19 0 0 0 16 48 100 100 100 100 100 100 100 100 100 100 100 100 97 90 84 77 81 81 77 74 74 74 68 74 74 68
0 0 0 0 0 0 0 0 0 0 0 0 0 0 0 16 71 26 0 0 0 13 48 100 100 100 100 100 100 100 100 100 100 100 100 100 97 81 74 74 71 61 32 32 32 39 39 39 42
0 0 0 0 0 0 0 0 0 0 0 0 0 0 6 32 42 6 0 0 0 13 71 100 100 100 100 100 100 100 100 100 100 100 100 100 100 97 94 90 87 77 77 65 48 45 32 26 29
0 0 0 0 0 0 0 0 0 0 0 0 0 0 3 52 35 3 0 0 0 26 71 100 100 100 100 100 100 100 100 100 100 100 100 100 100 100 100 100 100 100 97 100 94 94 97 87 87
0 0 0 0 0 0 0 0 0 0 0 0 0 0 0 35 26 6 3 0 0 16 61 100 100 100 100 100 100 100 100 100 100 100 100 100 100 100 100 100 100 100 100 100 100 100 100 100 100
0 0 0 0 0 0 0 0 0 0 0 0 0 0 0 13 19 19 13 10 6 0 45 94 97 100 100 100 100 100 100 100 100 100 100 100 100 100 100 100 100 100 100 100 100 100 100 100 100
0 0 0 0 0 0 0 0 0 0 0 0 0 0 0 10 16 23 26 39 13 3 16 61 87 90 100 100 100 100 100 100 100 100 100 100 100 100 100 100 100 100 100 100 100 100 100 100 100
0 0 0 0 0 0 0 0 0 0 0 0 0 3 6 13 16 16 29 52 35 10 0 29 65 84 90 97 100 100 100 100 100 100 100 100 97 94 100 100 100 100 100 100 100 100 100 100 100
0 0 0 0 0 0 0 0 0 0 0 0 0 3 10 10 16 19 23 58 61 32 3 6 35 58 68 61 77 100 100 100 100 100 97 97 97 97 100 100 100 100 100 100 100 100 97 97 100
0 0 0 0 0 0 0 0 0 0 3 0 0 3 6 13 16 19 19 29 68 61 29 6 16 32 39 26 65 90 94 100 100 100 97 97 97 100 100 100 100 100 100 100 100 94 94 94 94
0 0 0 0 0 0 0 0 0 0 3 3 0 3 6 6 6 10 13 13 48 58 48 29 35 42 48 55 77 81 81 87 97 94 97 100 100 100 100 97 84 94 94 94 90 87 90 87 84
0 0 0 0 0 0 0 0 0 3 10 13 3 3 3 6 6 10 19 13 35 42 35 39 48 48 52 77 84 87 94 100 100 97 97 100 100 100 97 94 77 77 74 65 52 58 61 52 61
0 0 0 0 0 0 0 0 0 3 16 10 3 6 13 6 23 26 19 16 23 26 35 45 52 61 65 84 97 97 97 97 100 100 100 100 100 100 81 71 55 48 42 29 16 16 16 13 16
0 0 0 0 0 0 0 0 6 3 26 16 19 16 10 13 26 16 13 23 23 19 26 29 42 45 61 77 94 97 97 97 100 100 100 100 100 87 65 48 26 13 10 10 6 3 3 0 0
0 0 0 0 0 0 0 0 0 19 26 19 16 13 16 26 19 13 13 10 10 6 6 16 19 35 45 71 81 90 90 90 90 87 94 94 94 90 55 23 6 3 3 0 0 0 0 0 0
0 0 0 0 0 0 0 0 3 6 13 6 16 13 16 10 10 10 10 3 6 6 6 6 10 16 23 52 68 74 84 81 81 84 84 77 74 68 35 3 0 0 0 0 0 0 0 0 0
0 0 0 0 0 0 0 3 0 0 3 6 16 16 19 3 3 3 3 3 6 3 6 6 6 6 13 26 35 45 55 48 52 55 74 65 52 32 16 3 0 0 0 0 0 0 0 0 0
0 0 0 0 0 0 3 16 6 10 3 6 10 13 6 0 0 0 0 0 0 0 3 3 3 0 6 3 6 19 19 10 19 35 42 39 16 6 3 0 0 0 0 0 0 0 0 0 0
0 0 0 0 0 0 0 3 13 3 6 3 6 6 0 0 0 0 0 0 0 0 0 0 0 0 0 0 0 3 0 0 0 3 6 6 0 0 0 0 0 0 0 0 0 0 0 0 0
0 0 0 0 0 0 0 0 3 10 6 3 0 0 0 0 0 0 0 0 0 0 0 0 0 0 0 0 0 10 10 3 0 0 0 0 0 0 0 0 0 0 0 0 0 0 0 0 0
0 0 0 0 0 0 0 0 0 3 3 3 0 0 0 0 0 0 0 0 0 0 0 0 0 0 0 0 0 6 6 3 0 0 0 0 0 0 0 0 0 0 0 0 0 0 0 0 0
0 0 0 0 0 0 0 0 0 0 0 0 0 0 0 0 0 0 0 0 0 0 0 0 0 0 0 0 0 0 0 3 0 0 0 0 0 0 0 0 0 0 0 0 0 0 0 0 0
0 0 0 0 0 0 0 0 0 0 0 0 0 0 0 0 0 0 0 0 0 0 0 0 0 0 0 0 0 0 0 0 0 0 0 0 0 0 0 0 0 0 0 0 0 0 0 0 0
0 0 0 0 0 0 0 0 0 0 0 0 0 0 0 0 0 0 0 0 0 0 0 0 0 0 0 0 0 0 0 0 0 0 0 0 0 0 0 0 0 0 0 0 0 0 0 0 0
0 0 0 0 0 0 0 0 0 0 0 0 0 0 0 0 0 0 0 0 0 0 0 0 0 0 0 0 0 0 0 0 0 0 0 0 0 0 0 0 0 0 0 0 0 0 0 0 0
0 0 0 0 0 0 0 0 0 0 0 0 0 0 0 0 0 0 0 0 0 0 0 0 0 0 0 0 0 0 0 0 0 0 0 0 0 0 0 0 0 0 0 0 0 0 0 0 0
0 0 0 0 0 0 0 0 0 0 0 0 0 0 0 0 0 0 0 0 0 0 0 0 0 0 0 0 0 0 0 0 0 0 0 0 0 0 0 0 0 0 0 0 0 0 0 0 0
0 0 0 0 0 0 0 0 0 0 0 0 0 0 0 0 0 0 0 0 0 0 0 0 0 0 0 0 0 0 0 0 0 0 0 0 0 0 0 0 0 0 0 0 0 0 0 0 0

GEFSSGP_con_cape1000_036.txt.gz
Probability
3 0 0 0 0 6 0 0 0 0 0 0 0 0 3 3 0 0 0 0 0 0 84 100 100 100 100 90 87 94 97 100 100 100 100 100 100 100 100 100 100 100 100 97 97 100 100 100 100
0 0 0 0 0 0 0 0 0 0 0 0 0 0 6 39 10 0 0 0 0 19 87 100 100 100 100 100 90 94 97 100 100 100 100 100 100 100 100 100 100 100 100 97 97 97 100 100 100
0 0 0 0 0 0 0 0 0 0 0 0 0 0 10 39 16 0 0 0 0 42 90 100 100 100 100 100 94 94 100 100 100 100 100 100 100 100 100 100 100 100 100 90 94 90 90 87 94
0 0 0 0 0 0 0 0 0 0 0 0 0 0 10 65 29 3 0 0 13 55 84 100 100 100 100 100 100 97 100 100 100 100 100 100 100 100 100 100 100 100 94 84 81 81 81 81 81
0 0 0 0 0 0 0 0 0 0 0 0 0 0 6 55 19 0 0 6 23 61 74 100 100 100 100 100 100 100 100 100 100 100 100 100 100 100 100 100 100 97 90 84 77 77 74 68 61
0 0 0 0 0 0 0 0 0 0 0 0 0 0 13 29 10 0 0 6 19 68 77 100 100 100 100 100 100 100 100 100 100 100 100 100 100 100 100 100 100 97 97 97 97 90 87 81 77
0 0 0 0 0 0 0 0 0 0 0 0 0 0 13 29 10 3 3 6 26 68 87 100 100 100 100 100 100 100 100 100 100 100 100 100 100 100 100 100 100 100 100 100 100 100 100 100 100
0 0 0 0 0 0 0 0 0 0 0 0 0 0 0 52 13 3 10 6 35 71 90 100 97 97 97 97 97 97 97 100 100 100 100 100 100 100 100 100 100 100 100 100 100 100 100 100 100
0 0 0 0 0 0 0 0 0 0 0 0 0 0 3 52 16 6 3 6 45 77 87 90 97 97 97 97 97 97 97 97 97 100 100 100 100 100 100 100 100 100 100 100 100 100 100 100 100
0 0 0 0 0 0 0 0 0 0 0 0 0 3 48 39 19 13 10 6 29 68 87 90 94 94 94 94 94 94 97 97 97 100 100 100 100 100 100 100 100 100 100 100 100 100 100 100 100
0 0 0 0 0 0 0 0 0 0 0 0 0 10 58 55 39 23 13 16 13 32 71 84 84 81 84 87 84 94 94 97 97 97 100 100 100 100 100 100 100 100 100 100 100 100 97 97 97
0 0 0 0 0 0 0 0 0 0 0 0 3 10 52 45 55 52 45 39 19 16 39 65 71 71 71 65 58 71 84 90 90 97 100 100 100 97 100 100 97 97 97 100 100 100 97 97 94
0 0 0 0 0 0 0 0 0 0 0 3 10 23 32 42 32 35 48 35 23 19 19 29 48 55 48 48 39 52 65 77 90 94 100 100 97 94 100 97 94 94 97 94 94 94 87 81 81
0 0 0 0 0 0 0 0 0 0 0 6 3 13 13 13 13 13 16 26 32 26 23 13 23 26 26 23 26 23 29 61 71 81 87 90 97 97 81 81 74 84 81 81 71 71 68 68 65
0 0 0 0 0 0 0 0 0 0 3 3 6 6 6 6 10 10 13 13 19 13 13 0 6 6 13 10 13 13 23 35 55 77 84 84 81 84 77 68 55 52 39 32 26 13 16 19 13
0 0 0 0 0 0 0 0 0 0 3 6 10 3 3 3 3 3 6 6 6 10 6 10 10 10 10 10 13 13 23 26 32 55 68 74 81 84 71 61 52 23 13 3 0 0 6 6 0
0 0 0 0 0 0 0 0 3 3 3 3 3 3 3 3 3 3 3 3 3 6 6 6 6 6 6 6 6 6 6 6 16 23 55 68 71 71 68 52 35 10 0 0 0 0 0 0 0
0 0 0 0 0 0 0 0 0 6 6 3 6 3 3 0 0 0 0 0 0 0 0 0 3 3 6 6 6 3 3 3 6 13 39 45 52 55 52 26 10 3 0 0 0 0 0 0 0
0 0 0 0 0 0 0 0 0 3 6 6 10 3 0 0 0 0 0 0 0 0 0 0 0 0 0 0 0 0 3 3 3 6 23 26 29 39 23 13 3 3 0 0 0 0 0 0 0
0 0 3 3 10 0 0 0 0 0 3 6 6 6 0 0 0 0 0 0 0 0 0 0 0 0 0 0 0 0 0 0 0 3 3 16 19 23 29 3 3 0 0 0 0 0 0 0 0
0 0 0 3 3 10 0 0 0 0 0 3 3 3 0 0 0 0 0 0 0 0 0 0 0 0 0 0 0 0 0 0 0 0 0 0 3 6 6 10 0 0 0 0 0 0 0 0 0
0 0 0 3 0 0 0 0 0 0 0 0 0 0 0 0 0 0 0 0 0 0 0 0 0 0 0 0 0 0 0 0 0 0 0 0 0 0 3 0 0 0 0 0 0 0 0 0 0
0 0 0 0 0 0 0 0 3 0 0 0 0 0 0 0 0 0 0 0 0 0 0 0 0 0 0 0 0 0 0 0 0 0 0 0 0 0 0 0 0 0 0 0 0 0 0 0 0
0 0 0 0 0 0 0 0 0 0 0 0 0 0 0 0 0 0 0 0 0 0 0 0 0 0 0 0 0 0 0 0 0 0 0 0 0 0 0 0 0 0 0 0 0 0 0 0 0
0 0 0 0 0 0 0 0 0 0 0 0 0 0 0 0 0 0 0 0 0 0 0 0 0 0 0 0 0 0 0 0 0 0 0 0 0 0 0 0 0 0 0 0 0 0 0 0 0
0 0 0 0 0 0 0 0 0 0 0 0 0 0 0 0 0 0 0 0 0 0 0 0 0 0 0 0 0 0 0 0 0 0 0 0 0 0 0 0 0 0 0 0 0 0 0 0 0
0 0 0 0 0 0 0 0 0 0 0 0 0 0 0 0 0 0 0 0 0 0 0 0 0 0 0 0 0 0 0 0 0 0 0 0 0 0 0 0 0 0 0 0 0 0 0 0 0
0 0 0 0 0 0 0 0 0 0 0 0 0 0 0 0 0 0 0 0 0 0 0 0 0 0 0 0 0 0 0 0 0 0 0 0 0 0 0 0 0 0 0 0 0 0 0 0 0
0 0 0 0 0 0 0 0 0 0 0 0 0 0 0 0 0 0 0 0 0 0 0 0 0 0 0 0 0 0 0 0 0 0 0 0 0 0 0 0 0 0 0 0 0 0 0 0 0
0 0 0 0 0 0 0 0 0 0 0 0 0 0 0 0 0 0 0 0 0 0 0 0 0 0 0 0 0 0 0 0 0 0 0 0 0 0 0 0 0 0 0 0 0 0 0 0 0

GEFSSGP_con_cape1000_042.txt.gz
Probability
0 0 0 0 74 71 3 0 0 0 0 0 0 0 0 0 0 13 77 23 3 16 97 100 100 100 100 100 100 100 100 100 100 100 100 100 100 100 100 100 100 100 100 90 90 100 97 97 100
0 0 0 29 61 0 0 0 0 0 0 0 0 0 0 6 58 65 48 23 3 23 94 87 100 100 100 100 100 100 100 100 100 100 100 100 100 100 100 100 100 100 100 94 94 97 94 87 94
0 0 0 0 0 0 0 0 0 0 0 0 0 0 3 29 55 45 32 6 3 58 97 100 100 100 100 100 100 100 100 100 100 100 100 100 100 100 100 100 100 100 94 90 90 87 77 81 84
0 0 0 0 0 0 0 0 0 0 0 0 0 3 13 77 52 26 19 3 16 68 90 100 100 100 100 100 100 100 100 100 100 100 100 100 100 100 100 100 100 97 90 84 81 90 81 81 77
0 0 0 0 0 0 0 0 0 0 0 0 0 3 23 90 39 13 23 13 26 58 87 100 100 100 100 100 100 100 100 100 100 100 100 100 100 100 100 100 97 94 94 87 84 87 90 90 81
0 0 0 0 0 0 0 0 0 0 0 0 0 3 65 97 35 23 13 16 13 39 71 100 100 100 100 100 100 97 97 94 97 100 100 100 100 100 100 100 97 97 97 90 87 87 87 90 90
0 0 0 0 0 0 0 0 0 0 0 3 0 3 71 94 65 39 23 16 10 13 48 100 100 100 100 97 97 97 97 97 94 97 97 100 100 100 100 100 100 100 97 97 97 97 97 97 97
0 0 0 0 0 0 0 0 0 0 10 10 10 10 52 100 84 65 58 42 19 23 45 97 97 100 97 97 97 97 97 97 97 97 100 100 100 100 100 100 100 97 97 100 100 100 100 100 100
0 0 0 0 0 0 0 0 0 3 10 19 32 65 87 100 90 81 81 65 65 48 71 97 100 100 100 97 97 97 97 97 97 97 97 100 100 65 100 94 100 100 100 100 100 100 100 100 100
0 0 0 0 0 0 0 0 0 0 6 26 42 87 97 100 100 97 87 87 90 90 94 100 100 100 100 97 97 97 97 97 97 97 97 97 100 100 84 97 100 100 100 100 100 100 100 100 100
0 0 0 0 0 0 0 0 3 3 13 23 35 68 90 100 100 100 97 97 97 100 97 100 100 100 100 100 97 97 97 97 97 94 97 97 97 97 100 97 100 100 100 100 100 100 100 100 97
0 0 0 0 0 0 0 0 6 13 29 26 42 74 90 94 97 97 97 100 100 100 100 100 97 100 100 94 90 90 84 87 94 94 94 90 97 97 97 100 94 97 100 100 100 100 100 100 100
0 0 0 0 0 0 0 3 6 13 39 58 68 77 87 94 94 90 90 90 90 87 87 84 94 90 87 90 87 74 74 74 74 87 87 94 97 97 100 100 100 100 90 100 100 100 97 100 97
0 0 0 0 0 0 3 6 6 16 35 45 58 68 71 74 77 81 81 81 81 81 84 84 77 84 84 81 90 77 65 74 68 77 81 90 94 97 97 100 100 100 100 94 90 84 94 100 97
0 0 0 0 0 0 0 10 16 29 29 35 32 42 39 39 42 42 58 61 65 71 74 71 68 71 71 71 71 61 52 55 55 61 65 87 90 94 90 97 100 97 94 97 100 97 97 94 94
0 0 0 0 0 0 0 3 13 26 35 23 16 13 16 16 13 19 32 45 52 52 52 52 42 52 55 71 68 55 52 55 58 55 58 58 71 81 84 87 90 90 90 90 90 97 97 94 97
0 0 0 0 0 0 0 32 16 19 32 26 10 10 13 16 19 10 10 23 29 35 42 42 39 35 32 52 71 61 65 65 58 48 42 52 55 52 74 74 81 74 81 71 74 71 68 71 74
0 0 3 3 6 13 23 19 16 16 19 16 19 19 19 10 10 6 6 3 13 23 23 29 19 29 32 35 39 45 48 45 39 39 32 35 35 26 39 35 39 45 58 65 68 68 74 65 58
0 0 3 16 3 13 19 13 10 16 16 19 19 19 13 13 6 6 3 3 10 13 19 19 23 19 32 32 29 29 26 39 26 26 13 16 10 16 19 19 35 48 52 55 32 35 23 42 32
0 0 16 42 19 13 13 10 10 10 13 16 10 13 10 10 13 3 6 6 6 3 6 3 3 6 13 26 35 35 35 32 23 16 10 3 3 13 6 23 23 29 45 29 29 26 23 10 13
0 0 10 61 35 16 26 16 3 10 6 3 3 3 3 3 3 3 6 3 0 3 3 3 3 3 3 6 3 6 13 13 10 6 6 0 3 3 6 19 23 42 29 26 29 39 26 6 6
0 0 6 48 45 23 23 0 16 0 3 3 6 6 3 3 3 0 0 6 6 3 3 3 3 3 3 0 0 0 0 6 6 3 6 3 6 6 6 13 19 26 32 52 35 10 23 26 3
0 0 13 29 13 6 3 0 16 0 3 0 0 3 0 0 0 0 0 0 0 0 3 3 3 0 0 0 0 3 0 0 0 0 0 0 3 6 6 6 6 13 23 29 32 26 42 23 10
3 13 23 10 3 0 0 0 0 13 3 0 0 0 0 0 0 0 0 0 0 0 0 0 0 0 0 0 0 0 3 0 0 0 0 0 0 0 0 0 3 3 10 13 26 39 45 45 26
0 3 0 0 0 0 0 0 16 13 3 0 0 0 0 0 0 0 0 0 0 0 0 0 0 0 0 0 0 0 0 0 0 0 0 0 0 0 0 0 0 0 6 6 10 29 35 42 45
0 0 0 0 0 0 0 0 39 10 3 0 0 0 0 0 0 0 0 0 0 0 0 0 0 0 0 0 0 0 0 0 0 0 0 0 0 0 0 0 0 0 0 0 0 6 13 19 39
0 0 0 0 0 0 0 0 19 0 0 0 0 0 0 0 0 0 0 0 0 0 0 0 0 0 0 0 0 0 0 0 0 0 0 0 3 0 0 0 0 0 0 0 0 0 6 10 16
0 0 0 0 0 0 0 0 0 0 0 0 0 0 0 0 0 0 0 0 0 0 0 0 0 0 0 0 0 0 0 0 0 0 0 0 0 0 0 0 0 0 0 0 0 0 0 3 6
0 0 0 0 0 0 0 0 0 0 0 0 0 0 0 0 0 0 0 0 0 0 0 0 0 0 0 0 0 0 0 0 0 0 0 0 0 0 0 0 0 0 0 0 0 0 0 0 3
0 0 0 0 0 0 0 0 0 0 0 0 0 0 0 0 0 0 0 0 0 0 0 0 0 0 0 0 0 0 0 0 0 0 0 0 0 0 0 0 0 0 0 0 0 0 0 0 0

GEFSSGP_con_cape1000_048.txt.gz
Probability
0 0 0 6 48 81 48 6 0 0 0 0 0 0 3 13 39 77 32 52 100 87 84 100 100 100 100 100 100 100 100 100 100 100 100 100 100 97 94 94 94 90 90 90 97 90 94 90 97
0 0 10 42 81 61 0 0 0 0 0 0 0 3 10 6 13 26 29 77 97 84 81 94 100 100 100 100 100 100 100 100 100 100 100 100 100 100 100 94 94 90 90 90 94 94 84 81 84
3 13 6 77 90 16 0 0 0 0 0 0 3 6 6 3 10 29 23 81 97 87 87 100 100 100 100 100 100 100 100 100 100 100 100 100 100 100 100 100 94 94 90 94 94 94 84 77 77
19 6 10 23 10 0 0 0 0 0 0 3 3 19 10 3 3 13 23 87 97 90 100 100 100 100 100 100 100 100 100 100 100 100 100 100 100 100 100 100 100 100 90 90 90 87 77 71 77
6 6 6 3 0 0 0 0 0 0 3 3 19 32 16 3 3 0 16 74 94 94 94 100 100 100 100 100 100 100 100 100 100 100 100 100 100 100 100 100 100 100 97 90 94 94 90 87 84
3 0 0 0 0 0 0 0 0 0 6 13 26 48 29 6 6 0 13 42 74 97 94 100 100 100 100 100 100 100 100 100 100 100 100 100 100 100 100 100 100 100 97 97 94 94 94 94 94
0 0 0 0 0 0 0 0 0 3 6 3 32 58 29 19 6 6 16 23 58 94 100 100 100 100 100 100 100 100 100 100 100 100 100 100 100 100 100 100 100 100 100 97 97 94 94 94 94
0 0 0 0 0 0 0 0 0 3 10 16 42 74 48 39 23 6 19 19 45 94 100 100 100 100 100 100 100 100 100 100 100 100 100 100 100 100 100 100 100 100 100 100 100 100 100 100 100
0 0 0 0 0 0 0 0 0 3 26 42 65 71 68 45 32 29 29 19 55 81 100 97 100 100 100 100 100 100 100 100 100 100 100 100 100 100 100 100 100 100 100 100 100 100 100 100 100
0 0 0 0 0 0 0 0 0 16 26 55 68 74 65 52 55 52 45 35 58 94 94 100 100 100 100 100 100 100 100 100 100 100 100 100 100 100 100 100 100 100 100 100 100 100 100 100 100
0 0 0 0 0 0 0 0 13 16 39 58 68 77 87 90 84 65 65 68 90 94 90 90 100 100 100 100 100 100 100 100 100 100 100 100 100 100 100 97 100 100 100 100 100 100 100 100 94
0 0 0 0 0 0 0 6 23 39 52 65 77 81 87 100 100 94 87 90 100 100 97 97 94 94 100 100 100 100 97 100 97 100 100 100 100 100 97 100 100 100 97 97 97 97 97 97 84
0 0 0 0 0 0 6 10 23 45 65 77 87 90 94 100 100 100 100 94 97 97 94 94 90 90 90 94 94 94 94 94 97 97 97 100 97 97 97 100 100 94 94 94 90 90 90 94 94
0 0 0 0 0 0 0 13 26 48 65 71 84 90 90 100 97 97 97 94 94 87 87 84 87 90 90 90 97 97 97 97 94 94 94 100 97 97 97 97 97 90 87 90 87 84 87 90 94
0 0 0 0 0 0 0 26 39 58 65 65 77 87 90 90 87 87 87 77 84 84 87 81 77 87 87 90 94 90 81 81 90 94 94 90 94 97 97 87 87 84 74 81 71 65 74 74 74
0 0 0 0 0 0 0 26 52 61 68 71 68 74 77 81 71 71 77 81 84 84 84 74 65 71 81 81 81 77 71 81 87 87 84 81 77 74 84 81 71 71 65 58 48 32 35 42 48
0 0 0 0 0 0 0 58 58 74 81 84 74 68 68 65 61 74 71 71 74 77 81 71 52 55 58 65 74 77 74 77 74 71 68 55 61 58 65 71 65 48 48 42 32 23 35 13 13
0 0 0 0 0 6 26 65 68 65 77 81 81 77 77 68 74 58 52 48 48 58 58 52 48 52 55 55 61 58 52 55 48 55 58 45 35 42 48 48 52 39 32 26 29 23 13 10 13
0 0 0 0 0 10 16 45 68 68 68 71 71 68 68 58 45 35 19 29 23 26 35 32 32 35 42 42 35 35 32 39 42 39 32 26 26 26 26 29 32 32 23 13 13 13 6 10 6
0 0 0 3 3 6 13 26 55 55 55 65 65 65 55 55 35 23 23 16 16 16 13 13 13 16 23 32 39 35 19 13 16 23 26 19 10 16 10 10 6 13 16 13 13 10 10 3 3
0 0 0 0 0 3 10 19 42 42 39 35 35 35 29 26 23 13 0 3 10 10 3 3 10 10 19 19 16 6 10 6 6 3 13 0 0 3 10 13 3 6 10 10 6 3 6 3 0
0 0 0 0 0 0 0 6 35 26 26 26 23 16 10 3 3 3 0 3 3 3 6 6 13 16 16 16 19 10 6 0 3 3 3 3 3 3 0 3 0 3 6 6 6 6 6 6 3
0 0 0 0 0 0 0 0 10 13 10 13 10 13 6 3 0 0 0 0 0 0 0 3 6 16 19 19 13 13 3 3 0 0 0 0 0 3 0 3 3 3 3 3 3 3 6 6 6
0 0 0 0 0 0 0 0 3 6 10 6 6 0 0 0 0 0 0 0 0 0 0 0 3 13 6 3 3 0 0 0 0 0 0 0 0 0 0 0 0 0 3 0 0 3 3 6 6
0 0 0 0 0 0 0 0 6 3 3 3 0 0 0 0 0 0 0 0 0 0 0 0 0 0 0 0 0 0 0 0 0 0 0 0 0 0 0 0 0 0 0 0 0 0 0 3 3
0 0 3 0 0 0 0 0 19 16 0 0 0 0 0 0 0 0 0 0 0 0 0 0 0 0 0 0 0 0 0 0 0 0 0 0 0 0 0 0 0 0 0 0 0 0 0 0 6
0 0 0 0 0 0 0 26 6 3 0 0 0 0 0 0 0 0 0 0 0 0 0 0 0 0 0 0 0 0 0 0 0 0 0 0 0 0 0 0 0 0 0 0 0 0 0 0 0
0 0 0 0 0 0 0 0 13 3 0 0 0 0 0 0 0 0 0 0 0 0 0 0 0 0 0 0 0 0 0 0 0 0 0 0 0 0 0 0 0 0 0 0 0 0 0 0 0
0 0 0 0 0 0 0 0 3 0 0 0 0 0 0 0 0 0 0 0 0 0 0 0 0 0 0 0 0 0 0 0 0 0 0 0 0 0 0 0 0 0 0 0 0 0 0 0 0
0 0 0 0 0 0 0 0 0 0 0 0 0 0 0 0 0 0 0 0 0 0 0 0 0 0 0 0 0 0 0 0 0 0 0 0 0 0 0 0 0 0 0 0 0 0 0 0 0

GEFSSGP_con_cape1000_054.txt.gz
Probability
32 0 0 0 0 0 13 10 6 0 0 0 6 19 29 52 45 58 39 55 68 97 100 100 100 100 100 100 100 100 100 100 100 100 100 100 100 100 100 100 100 100 100 100 100 100 100 97 94
3 0 0 0 3 19 10 10 0 0 0 0 0 3 13 52 81 77 55 52 77 100 100 100 100 100 100 100 100 100 100 100 100 100 100 100 100 100 100 100 100 100 97 97 100 90 100 100 97
0 0 0 0 16 26 26 3 0 0 0 0 0 0 3 29 65 81 61 52 68 94 97 100 100 100 100 100 100 100 100 100 100 100 100 100 100 100 100 100 100 100 97 97 97 94 90 100 97
0 0 0 0 3 19 16 3 6 10 6 3 3 0 0 16 74 81 65 48 65 90 100 100 100 100 100 100 100 100 100 100 100 100 100 100 100 100 100 100 100 100 97 97 97 94 87 90 94
0 0 0 0 0 0 3 6 10 13 6 3 0 0 3 71 90 74 61 52 65 90 100 100 100 100 100 100 100 100 100 100 100 100 100 100 100 100 100 100 100 100 100 97 97 97 94 90 90
0 0 0 0 0 0 0 6 13 13 13 6 0 3 10 61 87 77 71 65 68 90 100 100 100 100 100 100 100 100 100 100 100 100 100 100 100 100 100 100 100 100 100 100 97 94 97 100 97
0 0 0 0 0 0 3 6 19 26 45 45 19 10 10 48 77 87 81 77 81 90 97 100 100 100 100 100 100 100 100 100 100 100 100 100 100 100 100 100 100 100 100 100 100 97 97 97 100
0 0 0 0 0 0 0 6 26 48 42 42 26 13 6 16 55 77 87 84 84 94 100 100 100 100 100 100 100 100 100 100 100 100 100 100 100 100 100 100 100 100 100 100 100 100 100 100 100
0 0 0 0 0 0 6 23 35 39 45 48 35 23 26 19 42 68 87 87 81 94 90 94 94 94 97 100 100 100 100 100 100 100 100 100 100 100 100 100 100 100 100 100 100 100 100 100 100
0 0 0 0 0 6 16 23 39 55 55 52 39 35 39 39 32 55 81 84 81 81 84 90 94 94 94 97 97 97 100 100 100 100 100 100 100 94 97 97 100 100 100 100 100 100 100 100 97
0 0 0 0 3 6 23 39 45 65 71 71 55 48 52 61 55 61 74 87 77 81 87 87 87 87 90 90 94 90 90 94 94 97 94 97 100 97 97 90 94 97 97 94 97 94 94 97 97
0 0 0 0 0 13 19 42 58 68 81 84 77 68 71 74 71 74 77 77 81 81 81 87 81 84 81 81 74 71 74 77 81 77 81 81 81 71 68 65 65 77 77 84 84 87 87 84 87
0 0 0 0 6 16 23 55 74 65 74 81 87 90 90 84 81 71 68 68 61 65 65 71 68 68 61 58 61 61 65 71 71 71 74 68 68 61 58 58 58 61 65 58 61 68 71 71 77
0 0 0 0 13 23 32 58 74 71 77 77 77 77 71 65 65 61 55 52 52 45 42 45 52 42 45 39 39 48 48 55 55 48 45 48 48 42 48 45 39 42 39 35 39 42 42 48 52
0 0 0 0 6 16 32 58 68 58 74 68 77 65 65 58 61 58 45 45 39 29 32 32 26 19 19 19 26 32 29 26 23 29 32 35 35 29 26 26 26 26 23 16 10 13 13 16 16
0 0 0 0 3 10 23 55 61 48 55 55 71 65 55 55 48 48 52 35 19 19 16 13 19 16 13 10 10 23 23 13 13 13 16 19 19 13 16 13 13 16 10 10 3 6 0 0 0
0 0 0 0 0 13 26 42 55 48 55 42 35 45 45 45 45 39 29 26 16 13 10 0 3 3 6 3 3 6 10 16 13 10 6 10 10 6 0 0 0 0 3 0 0 0 0 0 0
0 0 0 0 6 13 29 39 39 42 52 42 35 42 29 26 23 26 23 23 16 10 3 3 0 0 3 0 0 0 0 0 6 10 6 10 6 0 0 0 0 0 0 0 0 0 0 0 0
0 0 0 0 6 10 26 32 29 39 45 42 32 26 29 29 13 13 13 16 16 10 10 3 3 3 0 0 0 0 0 0 0 0 0 0 0 0 0 0 0 0 0 0 3 0 0 0 0
0 0 0 0 3 13 19 23 29 19 35 35 32 23 16 16 10 10 6 6 6 10 3 3 3 0 0 0 0 0 0 0 0 0 0 0 0 0 0 0 0 0 0 0 0 0 0 0 0
0 0 0 0 0 10 13 10 13 10 6 23 29 19 13 6 6 3 6 6 6 3 0 3 0 0 0 0 0 0 0 0 0 0 0 0 0 0 0 0 0 0 0 0 0 0 0 0 0
0 0 0 0 0 0 0 0 3 3 0 10 16 10 3 3 3 0 0 3 0 0 0 0 0 0 0 0 0 0 0 0 0 0 0 0 0 0 0 0 0 0 0 0 0 0 0 0 0
0 0 0 0 0 0 0 0 0 0 0 0 3 6 3 3 3 0 0 0 0 0 0 0 0 0 0 0 0 0 0 0 0 0 0 0 0 0 0 0 0 0 0 0 0 0 0 0 0
0 0 0 0 0 0 0 0 0 0 0 0 0 3 3 0 0 0 0 0 0 0 0 0 0 0 0 0 0 0 0 0 0 0 0 0 0 0 0 0 0 0 0 0 0 0 0 0 0
0 0 0 0 0 0 0 0 0 0 0 0 0 0 0 0 0 0 0 0 0 0 0 0 0 0 0 0 0 0 0 0 0 0 0 0 0 0 0 0 0 0 0 0 0 0 0 0 0
0 0 0 0 0 0 0 0 0 0 0 0 0 0 0 0 0 0 0 0 0 0 0 0 0 0 0 0 0 0 0 0 0 0 0 0 0 0 0 0 0 0 0 0 0 0 0 0 0
0 0 0 0 0 0 0 0 0 0 0 0 0 0 0 0 0 0 0 0 0 0 0 0 0 0 0 0 0 0 0 0 0 0 0 0 0 0 0 0 0 0 0 0 0 0 0 0 0
0 0 0 0 0 0 0 0 0 0 0 0 0 0 0 0 0 0 0 0 0 0 0 0 0 0 0 0 0 0 0 0 0 0 0 0 0 0 0 0 0 0 0 0 0 0 0 0 0
0 0 0 0 0 0 0 0 0 0 0 0 0 0 0 0 0 0 0 0 0 0 0 0 0 0 0 0 0 0 0 0 0 0 0 0 0 0 0 0 0 0 0 0 0 0 0 0 0
0 0 0 0 0 0 0 0 0 0 0 0 0 0 0 0 0 0 0 0 0 0 0 0 0 0 0 0 0 0 0 0 0 0 0 0 0 0 0 0 0 0 0 0 0 0 0 0 0

GEFSSGP_con_cape1000_060.txt.gz
Probability
32 0 0 0 0 0 0 0 10 0 0 0 19 55 61 77 48 19 26 58 87 100 100 100 100 100 100 100 100 100 100 100 100 100 100 100 100 100 100 100 100 100 100 97 97 97 90 94 94
3 0 0 0 0 0 0 0 3 0 0 0 0 35 77 90 71 61 55 90 97 100 100 100 100 100 100 100 100 100 100 100 100 100 100 100 100 100 100 100 100 100 100 97 97 100 94 90 97
0 0 0 0 0 0 0 0 0 0 0 0 0 10 65 94 81 68 68 97 100 100 100 100 100 100 100 100 100 100 100 100 100 100 100 100 100 100 100 100 100 100 100 97 97 97 100 97 94
0 0 0 0 0 0 3 3 0 0 0 3 3 29 61 94 94 77 97 100 100 100 100 100 100 100 100 100 100 100 100 100 100 100 100 100 100 100 100 100 100 100 100 100 94 94 97 100 97
0 0 0 0 0 3 3 3 6 6 3 10 13 48 74 81 84 94 97 100 100 100 100 100 100 100 100 100 100 100 100 100 100 100 100 100 100 100 100 100 100 100 97 100 97 94 97 97 100
0 0 0 0 0 0 3 10 16 19 16 13 16 42 74 77 74 94 97 100 100 100 100 100 100 100 100 100 100 100 100 100 100 100 100 100 100 100 100 100 100 100 100 100 97 100 100 100 97
0 0 0 0 0 0 3 10 26 26 32 32 10 42 71 68 65 81 87 100 100 100 100 97 100 100 100 100 100 100 100 100 100 100 100 100 100 100 100 100 100 100 100 100 100 100 100 100 100
0 0 0 0 0 3 3 19 29 35 42 45 39 61 71 74 68 71 81 87 94 97 94 94 97 97 100 100 100 100 100 100 100 100 100 100 100 100 100 100 100 100 100 100 100 100 97 97 100
0 0 0 0 0 0 13 13 35 45 48 45 42 48 77 81 81 77 81 87 90 94 90 87 87 97 97 97 97 97 97 97 97 97 100 100 100 100 100 100 100 100 100 100 100 100 100 100 100
0 0 0 0 0 3 16 29 48 58 58 58 74 87 90 94 81 68 48 58 84 87 90 87 87 87 87 94 94 94 94 94 97 94 94 97 97 97 100 97 100 100 100 100 100 100 100 100 100
0 0 0 0 0 13 16 35 52 68 77 74 77 87 87 87 87 74 58 48 71 84 94 94 94 90 94 94 94 90 87 84 84 81 81 84 84 81 81 84 81 74 74 77 81 90 90 87 84
0 0 0 0 0 6 16 48 68 74 84 90 90 94 84 87 84 77 74 74 77 81 77 81 84 84 74 71 71 74 74 74 71 74 74 71 71 71 68 68 65 58 61 61 65 68 74 68 77
0 0 3 6 16 23 45 68 71 74 77 77 81 87 84 74 77 74 65 65 61 68 68 58 58 55 58 55 48 55 52 58 61 58 55 58 55 52 48 48 45 48 48 52 48 55 58 61 58
0 0 3 10 39 58 68 74 71 74 77 77 77 74 74 68 58 55 45 52 48 39 35 26 29 26 19 23 26 26 32 29 23 29 32 39 35 35 35 29 26 23 23 29 32 29 39 42 48
0 0 3 3 13 42 61 71 71 74 84 71 71 68 65 52 42 29 32 42 29 26 13 19 19 19 19 19 19 19 19 16 16 13 16 16 16 19 26 19 13 10 10 10 16 10 16 16 13
0 0 0 3 6 23 29 52 58 52 71 65 65 61 45 42 29 23 16 13 10 6 6 10 13 6 6 6 6 6 6 6 6 10 3 3 6 10 3 3 3 3 3 3 0 0 0 0 3
0 0 0 0 6 23 26 55 52 42 58 61 52 45 42 35 26 23 10 10 6 6 3 0 0 0 0 0 0 0 0 3 3 0 0 0 0 0 0 0 0 0 0 0 0 0 0 0 0
0 0 0 0 13 29 32 39 48 45 42 48 42 35 23 26 19 13 13 10 6 0 0 0 0 0 0 0 0 0 0 0 0 0 0 0 0 0 0 0 0 0 0 0 0 0 0 0 0
0 0 0 6 10 23 35 42 42 45 35 35 23 26 19 19 3 13 16 0 0 0 0 0 0 0 0 0 0 0 0 0 0 0 0 0 0 0 0 0 0 0 0 0 0 0 0 0 0
0 0 0 6 13 19 29 32 35 35 29 23 23 10 10 13 3 6 3 3 0 0 0 0 0 0 0 0 0 0 0 0 0 0 0 0 0 0 0 0 0 0 0 0 0 0 0 0 0
0 0 3 3 10 16 16 16 26 23 13 16 13 6 3 3 3 3 3 0 0 0 0 0 0 0 0 0 0 0 0 0 0 0 0 0 0 0 0 0 0 0 0 0 0 0 0 0 0
0 0 3 3 0 0 0 0 6 0 3 6 10 3 3 0 0 0 3 0 0 0 0 0 0 0 0 0 0 0 0 0 0 0 0 0 0 0 0 0 0 0 0 0 0 0 0 0 0
0 0 0 0 0 0 0 0 0 0 0 0 3 3 3 0 0 0 0 0 0 0 0 0 0 0 0 0 0 0 0 0 0 0 0 0 0 0 0 0 0 0 0 0 0 0 0 0 0
0 0 0 0 0 0 0 0 0 0 0 0 0 3 3 0 0 0 0 0 0 0 0 0 0 0 0 0 0 0 0 0 0 0 0 0 0 0 0 0 0 0 0 0 0 0 0 0 0
0 0 0 0 0 0 0 0 0 0 0 0 0 0 0 0 0 0 0 0 0 0 0 0 0 0 0 0 0 0 0 0 0 0 0 0 0 0 0 0 0 0 0 0 0 0 0 0 0
0 0 0 0 0 0 0 0 0 0 0 0 0 0 0 0 0 0 0 0 0 0 0 0 0 0 0 0 0 0 0 0 0 0 0 0 0 0 0 0 0 0 0 0 0 0 0 0 0
0 0 0 0 0 0 0 0 0 0 0 0 0 0 0 0 0 0 0 0 0 0 0 0 0 0 0 0 0 0 0 0 0 0 0 0 0 0 0 0 0 0 0 0 0 0 0 0 0
0 0 0 0 0 0 0 0 0 0 0 0 0 0 0 0 0 0 0 0 0 0 0 0 0 0 0 0 0 0 0 0 0 0 0 0 0 0 0 0 0 0 0 0 0 0 0 0 0
0 0 0 0 0 0 0 0 0 0 0 0 0 0 0 0 0 0 0 0 0 0 0 0 0 0 0 0 0 0 0 0 0 0 0 0 0 0 0 0 0 0 0 0 0 0 0 0 0
0 0 0 0 0 0 0 0 0 0 0 0 0 0 0 0 0 0 0 0 0 0 0 0 0 0 0 0 0 0 0 0 0 0 0 0 0 0 0 0 0 0 0 0 0 0 0 0 0